Regional Weather Roundup
Issued by NWS Charleston, SC

Current Version | Previous Version | Text Only | Print | Product List | Glossary Off
Versions: 1 2 3 4 5 6 7 8 9 10 11 12 13 14 15 16 17 18 19 20 21 22 23 24 25 26 27 28 29 30 31 32 33 34 35 36 37 38 39 40 41 42 43 44 45 46 47 48 49 50
000 ASUS42 KCHS 220012 RWRCHS Regional Weather Roundup National Weather Service Charleston SC 800 PM EDT SAT APR 21 2018 NOTE: "fair" indicates few or no clouds below 12,000 feet with no significant weather and/or obstructions to visibility. Not all stations are quality controlled. Use data with caution, especially dewpoint observations. SCZ027-030-031-034>040-042>050-220100- ...Southeast South Carolina... CITY SKY/WX TMP DP RH WIND PRES REMARKS N Charleston FAIR 62 51 67 E9 30.31S 6HR MIN TEMP: 62; 6HR MAX TEMP: 72; Waterfront Prk NOT AVBL Mount Pleasant FAIR 61 52 72 CALM 30.32S Johns Island FAIR 61 54 77 NE12G18 30.31S Pinopolis N/A 64 52 63 VRB3 30.22F Moncks Corner FAIR 61 46 59 SE5 30.32R Summerville FAIR 63 50 63 E3 30.32S Beaufort MCAS CLOUDY 65 55 70 E8 30.30R 6HR MIN TEMP: 65; 6HR MAX TEMP: 71; Beaufort Arpt CLOUDY 63 54 72 E15G22 30.29S Hilton Head Is FAIR 63 55 77 NE10G17 30.30R Walterboro CLOUDY 63 52 67 E9 30.31S Allendale CLOUDY 66 52 59 S6 30.28R ...Southern Midlands and Pee Dee... CITY SKY/WX TMP DP RH WIND PRES REMARKS Georgetown FAIR 57 50 77 E7 30.34S Kingstree FAIR 63 45 51 E7 30.32R Orangeburg FAIR 65 49 56 SE8 30.29R 6HR MIN TEMP: 65; 6HR MAX TEMP: 73; Barnwell MOCLDY 66 52 59 SE6 30.29R Aiken CLOUDY 66 43 42 E3 30.31R Manning FAIR 59 45 58 SE3 30.31R Columbia FAIR 69 43 38 E6 30.28R 6HR MIN TEMP: 69; 6HR MAX TEMP: 74; Sumter MOCLDY 67 46 46 SE5 30.27R 6HR MIN TEMP: 67; 6HR MAX TEMP: 73; 6HR PCP: TRACE; Florence FAIR 64 46 52 SE6 30.31R 6HR MIN TEMP: 64; 6HR MAX TEMP: 73; Myrtle Beach FAIR 59 46 62 E9 30.35S N Myrtle Beach FAIR 60 46 59 E8 30.34S 6HR MIN TEMP: 60; 6HR MAX TEMP: 66; $$ GAZ063-065-086>088-099>101-113>116-118-119-134>141-150-220100- ...Southeast Georgia... CITY SKY/WX TMP DP RH WIND PRES REMARKS Savannah Arpt MOCLDY 65 53 65 NE9 30.29R 6HR MIN TEMP: 65; 6HR MAX TEMP: 72; Hunter AAF MOCLDY 65 54 67 NE9 30.26R 6HR MIN TEMP: 65; 6HR MAX TEMP: 72; Fort Stewart CLOUDY 65 55 69 NE8 30.25S 6HR MIN TEMP: 65; 6HR MAX TEMP: 71; Statesboro CLOUDY 67 50 53 SE6 30.28S Sylvania CLOUDY 66 55 68 SE6 30.30R Claxton CLOUDY 68 56 64 CALM 30.28R ...CSRA, Central and far Southeast Georgia... CITY SKY/WX TMP DP RH WIND PRES REMARKS Thomson CLOUDY 68 41 37 S3 30.31S Augusta-Bush MOCLDY 68 52 56 SE7 30.26S 6HR MIN TEMP: 68; 6HR MAX TEMP: 76; Augusta-Daniel MOCLDY 70 50 49 SE7 30.27S Swainsboro CLOUDY 68 55 64 SE12 30.28R Vidalia CLOUDY 68 55 64 SE6 30.27S Eastman CLOUDY 67 53 59 SE7 30.28S Hazlehurst MOCLDY 65 57 73 E7 30.25S Alma CLOUDY 63 59 87 VRB5 30.25R 6HR MIN TEMP: 63; 6HR MAX TEMP: 66; 6HR PCP: TRACE; Waycross MOCLDY 64 61 90 E7 30.24S Jesup CLOUDY 66 55 68 CALM 30.26R Baxley DRIZZLE 61 61 100 NE3 30.25S Brunswick CLOUDY 64 59 82 NE9 30.25S Saint Simons CLOUDY 67 62 84 NE12 30.24S 6HR MIN TEMP: 67; 6HR MAX TEMP: 69; 6HR PCP: TRACE; $$ SCZ027-028-034-036>038-045-046-048>050-GAZ119-141-220100- ...Lake and Supplemental Coastal Observations... STATION/POSITION TIME TEMP WIND PRES WAVE SWELL AIR SEA DIR/SP/G HT/PER HT/PER/DIR (UTC) (F) (DEG/KT/KT) (MB) (FT/S) (FT/S/D) Winyah Bay 2245 62 90/ 11 1027.0 Lake Murray 2320 69 110/ 3/ 5 1024.7 ACE Basin NERRS 2245 66 350/ 4 N/A Fort Pulaski 2336 63 65 70/ 15/ 19 1025.5S Sapelo Island 2300 66 60/ 9 1024.0 $$ ANZ835-935-AMZ111-154-330-350-352-354-370-450-454-472-220100- ...C-MAN and Buoy Observations... STATION/POSITION TIME TEMP WIND PRES WAVE SWELL AIR SEA DIR/SP/G HT/PER HT/PER/DIR (UTC) (F) (DEG/KT/KT) (MB) (FT/S) (FT/S/D) Buoy 41004 2350 66 67 70/ 16/ 19 1025.8F 5/ 6 2/ 90/ 8 Buoy 41008 2350 66 65 80/ 12/ 14 1024.1S 5/ 7 3/130/ 7 Folly Beach CMAN 2300 63 50/ 18/ 20 1026.7F Capers Nearshore 2308 63 63 60/ 16/ 21 1026.5F Fripp Nearshore 2308 63 64 60/ 16/ 23 1025.1F STATION/POSITION TIME TEMP WIND PRES WAVE SWELL AIR SEA DIR/SP/G HT/PER HT/PER/DIR (UTC) (F) (DEG/KT/KT) (MB) (FT/S) (FT/S/D) 5E St. Marys GA 0000 66 N/A 5/ 7 Frying Pan Buoy 2350 63 67 60/ 16/ 19 1027.1F 4/ 5 2/ 80/ 8 Buoy 41025 2350 58 73 50/ 8/ 12 1029.0F 3/ 7 3/ 50/ 7 Cape Lookout NC 2300 90/ 12/ 13 1028.5F Buoy 41002 2350 65 72 60/ 12/ 16 1026.0R 4/ 8 3/ 30/ 8 Buoy 41010 2350 72 76 70/ 19/ 23 1022.6S 8/ 8 2/ 50/14 St Augustine FL 0000 69 67 90/ 14/ 16 1022.7R $$

USA.gov is the U.S. government's official web portal to all federal, state and local government web resources and services.